Simultaneous Nadir Overpasses (SNOs) Predictions

Prediction of SNOs between GOES-16 and METOP-B Satellite Orbit:

Table of predicted SNOs for the next 14.0 days since TLE Epoch: 8/31/2018
Index Date Time (GOES-16) GOES-16 Lat,Lon METOP-B Lat,Lon Distance(km) Time Diff (sec)
1 09/02/2018 14:25:42 -0.00, -75.23 -0.09, -74.82 47.05 80
2 09/04/2018 02:47:21 -0.01, -75.23 -0.92, -79.42 476.27 80
3 09/05/2018 02:24:01 -0.00, -75.24 0.19, -74.42 93.96 80
4 09/06/2018 14:45:30 0.01, -75.27 0.84, -78.98 422.64 80
5 09/07/2018 14:22:10 0.00, -75.28 -0.27, -73.98 147.89 80
6 09/09/2018 02:43:49 -0.01, -75.29 -0.74, -78.58 374.44 80
7 09/10/2018 02:20:28 -0.00, -75.31 0.38, -73.59 196.56 80
8 09/11/2018 14:41:59 0.01, -75.35 0.61, -78.15 318.66 80
9 09/12/2018 14:18:38 0.00, -75.37 -0.51, -73.16 252.85 80
10 09/14/2018 02:40:17 -0.01, -75.40 -0.55, -77.75 267.96 80




NCC Satellite Simultaneous Nadir Overpasses (SNOs) Prediction Service
